Tracking 20093 objects as of 14-Dec-2019
HD Live streaming from Space Station
objects crossing your sky now

COSMOS 2251 DEB

Track COSMOS 2251 DEB now!
10-day predictions


NORAD ID: 35836
Int'l Code: 1993-036ATJ
Perigee: 726.7 km
Apogee: 794.4 km
Inclination: 74.0 °
Period: 99.9 minutes
Semi major axis: 7131 km
RCS: 0.0112 m2 (small)
Launch date: June 16, 1993
Source: Commonwealth of Independent States (former USSR) (CIS)
Launch site: PLESETSK MISSILE AND SPACE COMPLEX (PKMTR)

Note: This is SATELLITE DEBRIS
aabbcc
Your satellite tracking list
Your tracking list is empty




NASA's NSSDC Master Catalog

Two Line Element Set (TLE):
1 35836U 93036ATJ 19348.29935463  .00000580  00000-0  18414-3 0  9996
2 35836  74.0422 319.5985 0047440 207.5840 152.2798 14.41542246558286
Source of the keplerian elements: AFSPC